TimeEST,TemperatureF,Dew PointF,Humidity,Sea Level PressureIn,VisibilityMPH,Wind Direction,Wind SpeedMPH,Gust SpeedMPH,PrecipitationIn,Events,Conditions,WindDirDegrees,DateUTC
12:53 AM,77.0,73.0,88,29.96,10.0,NNE,5.8,-,N/A,,Clear,20,2013-11-08 05:53:00
1:53 AM,77.0,73.0,88,29.95,10.0,NNE,9.2,-,N/A,,Clear,20,2013-11-08 06:53:00
2:53 AM,75.9,72.0,87,29.94,10.0,North,10.4,19.6,N/A,,Clear,10,2013-11-08 07:53:00
3:53 AM,75.9,71.1,85,29.94,10.0,NNE,12.7,-,N/A,,Partly Cloudy,20,2013-11-08 08:53:00
4:53 AM,75.9,71.1,85,29.95,10.0,NNE,10.4,-,N/A,,Mostly Cloudy,20,2013-11-08 09:53:00
5:53 AM,75.0,70.0,84,29.96,10.0,NNE,11.5,-,N/A,,Scattered Clouds,20,2013-11-08 10:53:00
6:53 AM,75.0,70.0,84,29.98,10.0,NNE,12.7,23.0,N/A,,Clear,20,2013-11-08 11:53:00
7:53 AM,75.9,70.0,82,29.99,10.0,NNE,11.5,-,N/A,,Clear,30,2013-11-08 12:53:00
8:53 AM,77.0,72.0,84,30.00,10.0,NNE,13.8,-,N/A,,Clear,30,2013-11-08 13:53:00
9:53 AM,80.1,73.0,79,30.01,10.0,NNE,12.7,-,N/A,,Clear,30,2013-11-08 14:53:00
10:53 AM,81.0,73.9,79,30.00,10.0,NE,13.8,-,N/A,,Clear,40,2013-11-08 15:53:00
11:53 AM,82.9,73.9,74,29.98,10.0,NE,12.7,-,N/A,,Clear,40,2013-11-08 16:53:00
12:53 PM,84.0,75.0,74,29.96,10.0,NE,12.7,-,N/A,,Clear,50,2013-11-08 17:53:00
1:53 PM,84.0,75.0,74,29.94,10.0,NE,18.4,-,N/A,,Mostly Cloudy,50,2013-11-08 18:53:00
2:53 PM,84.0,73.9,72,29.93,10.0,NE,16.1,-,N/A,,Clear,50,2013-11-08 19:53:00
3:53 PM,82.9,73.9,74,29.94,10.0,NE,18.4,-,N/A,,Clear,50,2013-11-08 20:53:00
4:53 PM,82.0,73.0,74,29.95,10.0,NE,16.1,-,N/A,,Clear,50,2013-11-08 21:53:00
5:53 PM,81.0,72.0,74,29.97,10.0,NE,15.0,25.3,N/A,,Clear,50,2013-11-08 22:53:00
6:53 PM,80.1,73.0,79,29.99,10.0,NE,16.1,23.0,N/A,,Overcast,50,2013-11-08 23:53:00
7:53 PM,80.1,71.1,74,30.00,10.0,NE,12.7,-,N/A,,Clear,50,2013-11-09 00:53:00
8:53 PM,79.0,73.0,82,30.01,10.0,NE,13.8,-,N/A,,Clear,40,2013-11-09 01:53:00
9:53 PM,77.0,73.9,90,30.02,10.0,NNE,10.4,-,N/A,,Clear,30,2013-11-09 02:53:00
10:53 PM,77.0,75.0,94,30.01,10.0,NNE,12.7,-,N/A,,Partly Cloudy,30,2013-11-09 03:53:00
11:53 PM,75.9,75.0,97,30.01,10.0,NE,9.2,-,N/A,,Clear,40,2013-11-09 04:53:00